sat.trackr.live / text

‹ back to catalog

STARLINK-30265

NORAD 57646 · 2023-122Q

PAYLOAD ACTIVE UNKNOWN

§ Identity

Operator
Country
US
Launch date
2023-08-17
Launch site
AFETR
Launch vehicle
Mass (kg)
RCS (m²)

Purposes: comms

External: N2YO · Heavens-Above · Gunter

§ Orbital elements

Epoch: 2026-09-19T21:40:55.225344Z

Period
94.27 min
Inclination
43.0021°
Eccentricity
0.0001910
Mean motion
15.27573180 rev/d
Perigee alt
481.8 km
Apogee alt
484.4 km
Semi-major
6,861.2 km
B*
-9.2929e-5
RAAN
75.3272°
Arg perigee
259.1642°
Mean anomaly
100.8994°
Rev number
17,191

§ Raw data

STARLINK-302651 57646U 23122Q   26262.90341696 -.00002818  00000+0 -92929-4 0  99992 57646  43.0021  75.3272 0001910 259.1642 100.8994 15.27573180171915

JSON: /api/v1/satellites/57646 · /tle

For live sub-satellite position, see the globe view (requires WebGL).

§ Visibility from observer

Set your observer location to see the next 7 days of passes ≥ 10°. The values pass through the URL so the page stays shareable.

No JS? Fill the form by hand. The geolocation button needs JavaScript.